Flag for Netherlands Weather past 2 weeks in Oss, Netherlands

Now
66 °F

More clouds than sun.


Feels Like: 66 °F
Forecast: 49 / 62 °F
Wind: 21 mph from Southwest

Location: Volkel

Current Time: Jun 2, 2015 at 9:38:10 PM

Latest Report: Jun 2, 2015 at 8:55 PM


Visibility: N/A

Pressure: 29.86 "Hg

Humidity: 68%

Dew point: 55 °F

Location of OssLocation

Historic Weather in Oss — Graph

°F

Oss temperature yesterday

Maximum temperature yesterday: 63 °F (at 2:55 PM)
Minimum temperature yesterday: 46 °F (at 2:55 AM)
Average temperature yesterday: 55 °F

Past Weeks' High & Low Weather Summary

 TemperatureHumidityPressure
High70 °F (May 22, 2:55 PM)100% (May 21, 2:25 AM)30.33 "Hg (May 21, 2:25 AM)
Low39 °F (May 21, 2:55 AM)31% (May 24, 8:55 PM)29.62 "Hg (May 18, 9:25 PM)
Average55 °F71%30.00 "Hg
* Reported May 18 8:25 PM — Jun 2 8:25 PM, Oss, Weather by CustomWeather, © 2015

Note: Actual official high and low records may vary slightly from our data, if they occured in-between our weather recording intervals... More about our weather records

Advertising

Oss weather history for previous 24 hours

 ConditionsComfort  
Time TempWeatherWind HumidityBarometerVisibility
8:25 PM
Tue, Jun 2
66 °FMostly cloudy.26 mph68%29.86 "HgN/A
7:55 PM66 °FMostly cloudy.21 mph68%29.86 "HgN/A
7:25 PM66 °FOvercast.20 mph68%29.86 "HgN/A
6:55 PM66 °FBroken clouds.22 mph68%29.86 "HgN/A
6:25 PM66 °FMostly cloudy.21 mph68%29.86 "HgN/A
5:55 PM66 °FOvercast.22 mph68%29.86 "HgN/A
5:25 PM64 °FMostly cloudy.25 mph73%29.83 "HgN/A
4:55 PM66 °FBroken clouds.24 mph68%29.83 "HgN/A
4:25 PM64 °FOvercast.23 mph68%29.83 "HgN/A
3:55 PM64 °FMostly cloudy.23 mph68%29.83 "HgN/A
3:25 PM64 °FMostly cloudy.24 mph68%29.80 "HgN/A
2:59 PM63 °FOvercast.24 mph73%29.80 "HgN/A
2:25 PM63 °FMostly cloudy.22 mph73%29.80 "HgN/A
1:59 PM63 °FMostly cloudy.24 mph68%29.80 "HgN/A
1:25 PM61 °FMostly cloudy.23 mph72%29.80 "HgN/A
12:55 PM59 °FOvercast.21 mph77%29.80 "HgN/A
12:25 PM59 °FOvercast.20 mph77%29.80 "HgN/A
11:55 AM57 °FOvercast.18 mph82%29.80 "HgN/A
11:25 AM57 °FMore clouds than sun.17 mph82%29.80 "HgN/A
11:02 AM55 °FOvercast.17 mph82%29.80 "HgN/A
10:55 AM55 °FOvercast.16 mph82%29.80 "HgN/A
10:25 AM55 °FDrizzle. More clouds than sun.18 mph82%29.80 "HgN/A
10:00 AM55 °FLight rain. More clouds than sun.18 mph82%29.80 "HgN/A
9:25 AM55 °FLight rain. Mostly cloudy.21 mph82%29.80 "HgN/A
8:55 AM55 °FDrizzle. Mostly cloudy.20 mph77%29.77 "HgN/A
8:25 AM55 °FMore clouds than sun.20 mph72%29.77 "HgN/A
7:55 AM55 °FMore clouds than sun.21 mph72%29.77 "HgN/A
7:25 AM55 °FPartly sunny.20 mph67%29.77 "HgN/A
6:55 AM54 °FOvercast.21 mph72%29.77 "HgN/A
5:25 AM55 °FPartly cloudy.16 mph67%29.80 "HgN/A
4:55 AM55 °FPassing clouds.13 mph67%29.80 "HgN/A
4:25 AM55 °FOvercast.13 mph63%29.80 "HgN/A
3:55 AM55 °FPartly cloudy.13 mph63%29.83 "HgN/A
3:25 AM55 °FLight rain. Mostly cloudy.9 mph63%29.83 "HgN/A
2:55 AM55 °FOvercast.12 mph63%29.83 "HgN/A
2:25 AM55 °FPartly cloudy.12 mph63%29.86 "HgN/A
1:55 AM55 °FPartly cloudy.12 mph63%29.86 "HgN/A
1:25 AM55 °FMostly cloudy.10 mph63%29.89 "HgN/A
12:55 AM55 °FPassing clouds.8 mph63%29.89 "HgN/A
12:25 AM55 °FOvercast.7 mph67%29.89 "HgN/A
11:55 PM
Mon, Jun 1
54 °FMostly cloudy.6 mph72%29.92 "HgN/A
11:25 PM54 °FOvercast.5 mph72%29.92 "HgN/A
10:55 PM54 °FMostly cloudy.3 mph72%29.92 "HgN/A
10:25 PM55 °FMostly cloudy.2 mph67%29.92 "HgN/A
9:55 PM55 °FOvercast.3 mph72%29.95 "HgN/A
9:25 PM57 °FPartly sunny.5 mph63%29.92 "HgN/A
Weather by CustomWeather, © 2015

See weather overviewHow to use our weather pages